Find N-STAR a

NORAD ID: 23651 Int'l Des: 1995-044 Owner: NTT Country: J operational
HEOCIRCULAR

現在のビュー

3D地球を読み込み中...

About N-STAR a

N-STAR a (NORAD 23651) is a satellite launched Aug 29, 1995 by NTT of J. It operates in HEO, CIRCULAR orbit with a mass of 3410.00 kg.

次回通過

Passes for default location (London). Set your location on the main map for personalized predictions.

高度履歴

Loading altitude history...

軌道要素

1 23651U 95044A 26194.88650023 -.00000070 00000-0 00000+0 0 9990
2 23651 13.2388 21.1245 0021035 17.5084 304.8875 0.99126066112171
Epoch: Jul 13, 2026 • Age: 25 hours

現在のステータス

高度 36055.6 km
遠地点 / 近地点 N/A
速度 3.07 km/s
衛星直下点 -7.23°S, 88.92°E
打ち上げ日 Aug 29, 1995
運用期間 30.8 years
タイプ other

技術仕様

分類 Payload
質量 3410.00 kg
乾燥質量 1617.00 kg
総質量 3410.00 kg
長さ 6.30 m
直径 2.20 m
スパン 27.30 m
形状 Box + Ant + 2 Pan
製造者 LOR
バスタイプ FS-1300
フェーズステータス In Orbit
所有者/国 NTT/J

Most Searched